Saratoga Shively Field Airpor, WY

11:42 AM MDT on October 17, 2017 (GMT -0600)
Shively

Weather History for KSAA - April, 2014

Change the Weather History Date:

Wednesday, April 9, 2014

  Actual Average Record
Temperature  
Mean Temperature 49 °F -  
Max Temperature 66 °F 52 °F 66 °F (2014)
Min Temperature 32 °F 25 °F 26 °F (2015)
Degree Days  
Heating Degree Days 16    
Moisture  
Dew Point 23 °F    
Average Humidity 40    
Maximum Humidity 80    
Minimum Humidity 15    
Precipitation  
Precipitation 0.00 in - - ()
Sea Level Pressure  
Sea Level Pressure 30.08 in    
Wind  
Wind Speed 11 mph (SW)    
Max Wind Speed 32 mph    
Max Gust Speed 43 mph    
Visibility 10 miles    
Events      
Averages and records for this station are not official NWS values.
T = Trace of Precipitation, MM = Missing Value Source: NWS Daily Summary

Daily Weather History Graph

Daily Weather History Graph

Search for Another Location

Airport or City:

Trip Planner

Search our weather history database for the weather conditions in past years. The results will help you decide how hot, cold, wet, or windy it might be!

Date:

Astronomy

Apr. 09, 2014 Rise Set
Actual Time 6:37 AM MDT 7:41 PM MDT
Civil Twilight 6:08 AM MDT 8:09 PM MDT
Nautical Twilight 5:35 AM MDT 8:43 PM MDT
Astronomical Twilight 4:59 AM MDT 9:19 PM MDT
Moon 2:28 PM MDT (4/9) 3:31 AM MDT (4/9)
Length of Visible Light 14h 00m
Length of Day
13h 04m
Waxing Gibbous, 72% of the Moon is Illuminated
Apr 9
Waxing Gibbous
Apr 15
Full
Apr 22
Last Quarter
Apr 29
New
May 6
First Quarter

Hourly Weather History & Observations

Time (MDT) Temp. Windchill Dew Point Humidity Pressure Visibility Wind Dir Wind Speed Gust Speed Precip Events Conditions
12:15 AM 35.6 °F 31.7 °F 26.6 °F 70% 30.21 in 10.0 mi East 4.6 mph - N/A   Clear
12:35 AM 41.0 °F - 24.8 °F 53% 30.21 in 10.0 mi Calm Calm - N/A   Clear
12:55 AM 39.2 °F 35.9 °F 24.8 °F 56% 30.21 in 10.0 mi ESE 4.6 mph - N/A   Clear
1:15 AM 39.2 °F 35.9 °F 24.8 °F 56% 30.21 in 10.0 mi SSE 4.6 mph - N/A   Clear
1:35 AM 37.4 °F 33.8 °F 24.8 °F 60% 30.21 in 10.0 mi SE 4.6 mph - N/A   Clear
1:55 AM 35.6 °F 31.7 °F 26.6 °F 70% 30.20 in 10.0 mi ESE 4.6 mph - N/A   Clear
2:15 AM 33.8 °F 26.4 °F 26.6 °F 75% 30.20 in 10.0 mi SE 9.2 mph - N/A   Clear
2:35 AM 33.8 °F 30.8 °F 26.6 °F 75% 30.19 in 10.0 mi SSE 3.5 mph - N/A   Clear
2:55 AM 33.8 °F - 24.8 °F 70% 30.19 in 10.0 mi Calm Calm - N/A   Clear
3:15 AM 32.0 °F 28.7 °F 26.6 °F 80% 30.18 in 10.0 mi SE 3.5 mph - N/A   Clear
3:35 AM 32.0 °F 27.5 °F 24.8 °F 75% 30.18 in 10.0 mi ESE 4.6 mph - N/A   Clear
3:55 AM 35.6 °F 28.0 °F 26.6 °F 70% 30.17 in 10.0 mi SSW 10.4 mph - N/A   Clear
4:15 AM 37.4 °F 29.3 °F 24.8 °F 60% 30.17 in 10.0 mi SW 12.7 mph - N/A   Clear
4:35 AM 39.2 °F 31.6 °F 24.8 °F 56% 30.16 in 10.0 mi SW 12.7 mph - N/A   Clear
4:55 AM 41.0 °F 33.9 °F 24.8 °F 53% 30.15 in 10.0 mi SW 12.7 mph - N/A   Clear
5:15 AM 41.0 °F 39.0 °F 24.8 °F 53% 30.15 in 10.0 mi SSW 3.5 mph - N/A   Clear
5:35 AM 33.8 °F 27.7 °F 26.6 °F 75% 30.15 in 10.0 mi SE 6.9 mph - N/A   Clear
5:55 AM 33.8 °F 27.7 °F 24.8 °F 70% 30.15 in 10.0 mi SE 6.9 mph - N/A   Clear
6:15 AM 33.8 °F 30.8 °F 26.6 °F 75% 30.15 in 10.0 mi SE 3.5 mph - N/A   Clear
6:35 AM 32.0 °F - 24.8 °F 75% 30.15 in 10.0 mi Calm Calm - N/A   Clear
6:55 AM 32.0 °F - 24.8 °F 75% 30.15 in 10.0 mi Calm Calm - N/A   Clear
7:15 AM 33.8 °F 29.6 °F 26.6 °F 75% 30.15 in 10.0 mi East 4.6 mph - N/A   Clear
7:35 AM 35.6 °F 29.2 °F 28.4 °F 75% 30.15 in 10.0 mi SE 8.1 mph - N/A   Clear
7:55 AM 41.0 °F 38.0 °F 28.4 °F 61% 30.15 in 10.0 mi SE 4.6 mph - N/A   Clear
8:15 AM 42.8 °F 40.1 °F 30.2 °F 61% 30.15 in 10.0 mi South 4.6 mph - N/A   Clear
8:35 AM 50.0 °F - 23.0 °F 35% 30.14 in 10.0 mi SSW 12.7 mph 18.4 mph N/A   Clear
8:55 AM 51.8 °F - 23.0 °F 33% 30.14 in 10.0 mi SW 10.4 mph 17.3 mph N/A   Clear
9:15 AM 55.4 °F - 24.8 °F 31% 30.14 in 10.0 mi WSW 15.0 mph 20.7 mph N/A   Scattered Clouds
9:35 AM 59.0 °F - 23.0 °F 25% 30.13 in 10.0 mi West 18.4 mph 25.3 mph N/A   Scattered Clouds
9:55 AM 59.0 °F - 21.2 °F 23% 30.13 in 10.0 mi WSW 19.6 mph 26.5 mph N/A   Mostly Cloudy
10:15 AM 59.0 °F - 21.2 °F 23% 30.13 in 10.0 mi WSW 19.6 mph 25.3 mph N/A   Overcast
10:35 AM 59.0 °F - 21.2 °F 23% 30.12 in 10.0 mi WSW 19.6 mph 24.2 mph N/A   Scattered Clouds
10:55 AM 60.8 °F - 21.2 °F 22% 30.12 in 10.0 mi WSW 23.0 mph 27.6 mph N/A   Clear
11:15 AM 60.8 °F - 21.2 °F 22% 30.11 in 10.0 mi West 21.9 mph 28.8 mph N/A   Clear
11:35 AM 60.8 °F - 21.2 °F 22% 30.10 in 10.0 mi WSW 23.0 mph 28.8 mph N/A   Clear
11:55 AM 62.6 °F - 23.0 °F 22% 30.09 in 10.0 mi WSW 24.2 mph 32.2 mph N/A   Clear
12:15 PM 60.8 °F - 23.0 °F 23% 30.08 in 10.0 mi SW 20.7 mph 29.9 mph N/A   Clear
12:35 PM 60.8 °F - 23.0 °F 23% 30.07 in 10.0 mi WSW 21.9 mph 32.2 mph N/A   Clear
12:55 PM 60.8 °F - 21.2 °F 22% 30.06 in 10.0 mi WSW 24.2 mph 35.7 mph N/A   Clear
1:15 PM 62.6 °F - 21.2 °F 20% 30.06 in 10.0 mi WSW 17.3 mph 32.2 mph N/A   Clear
1:35 PM 62.6 °F - 23.0 °F 22% 30.05 in 10.0 mi WSW 26.5 mph 36.8 mph N/A   Clear
1:55 PM 64.4 °F - 21.2 °F 19% 30.04 in 10.0 mi WSW 24.2 mph 42.6 mph N/A   Scattered Clouds
2:15 PM 66.2 °F - 23.0 °F 19% 30.03 in 10.0 mi West 29.9 mph 38.0 mph N/A   Mostly Cloudy
2:35 PM 66.2 °F - 23.0 °F 19% 30.02 in 10.0 mi WSW 25.3 mph 39.1 mph N/A   Scattered Clouds
2:55 PM 66.2 °F - 19.4 °F 17% 30.01 in 10.0 mi WSW 25.3 mph 40.3 mph N/A   Clear
3:15 PM 66.2 °F - 17.6 °F 15% 30.01 in 10.0 mi WSW 25.3 mph 36.8 mph N/A   Scattered Clouds
3:35 PM 64.4 °F - 19.4 °F 18% 29.99 in 10.0 mi WSW 32.2 mph 40.3 mph N/A   Scattered Clouds
3:55 PM 62.6 °F - 19.4 °F 19% 29.99 in 10.0 mi WSW 23.0 mph 40.3 mph N/A   Mostly Cloudy
4:15 PM 64.4 °F - 19.4 °F 18% 29.98 in 10.0 mi SW 29.9 mph 36.8 mph N/A   Overcast
4:35 PM 62.6 °F - 19.4 °F 19% 29.98 in 10.0 mi SW 25.3 mph 33.4 mph N/A   Overcast
4:55 PM 62.6 °F - 19.4 °F 19% 29.97 in 10.0 mi WSW 25.3 mph 39.1 mph N/A   Overcast
5:15 PM 60.8 °F - 21.2 °F 22% 29.98 in 10.0 mi WSW 19.6 mph 26.5 mph N/A   Overcast
5:35 PM 60.8 °F - 21.2 °F 22% 29.98 in 10.0 mi WSW 19.6 mph 26.5 mph N/A   Overcast
5:55 PM 59.0 °F - 23.0 °F 25% 29.98 in 10.0 mi WSW 17.3 mph 28.8 mph N/A   Overcast
6:15 PM 60.8 °F - 23.0 °F 23% 29.98 in 10.0 mi West 13.8 mph 23.0 mph N/A   Overcast
6:35 PM 60.8 °F - 23.0 °F 23% 29.98 in 10.0 mi West 16.1 mph 24.2 mph N/A   Mostly Cloudy
6:55 PM 59.0 °F - 23.0 °F 25% 29.98 in 10.0 mi WSW 9.2 mph 16.1 mph N/A   Mostly Cloudy
7:15 PM 57.2 °F - 23.0 °F 27% 29.98 in 10.0 mi SW 11.5 mph 16.1 mph N/A   Overcast
7:35 PM 55.4 °F - 23.0 °F 29% 29.98 in 10.0 mi WSW 10.4 mph 17.3 mph N/A   Overcast
7:55 PM 51.8 °F - 23.0 °F 33% 29.98 in 10.0 mi WSW 8.1 mph - N/A   Overcast
8:15 PM 50.0 °F - 23.0 °F 35% 29.99 in 10.0 mi WSW 9.2 mph - N/A   Scattered Clouds
8:35 PM 48.2 °F - 23.0 °F 37% 30.00 in 10.0 mi West 11.5 mph - N/A   Clear
8:55 PM 50.0 °F - 21.2 °F 32% 30.01 in 10.0 mi WSW 9.2 mph - N/A   Mostly Cloudy
9:15 PM 50.0 °F - 21.2 °F 32% 30.01 in 10.0 mi SW 12.7 mph - N/A   Mostly Cloudy
9:35 PM 50.0 °F - 21.2 °F 32% 30.02 in 10.0 mi WSW 12.7 mph - N/A   Scattered Clouds
9:55 PM 50.0 °F - 23.0 °F 35% 30.03 in 10.0 mi WSW 12.7 mph - N/A   Scattered Clouds
10:15 PM 50.0 °F - 23.0 °F 35% 30.03 in 10.0 mi WSW 11.5 mph - N/A   Mostly Cloudy
10:35 PM 50.0 °F - 23.0 °F 35% 30.03 in 10.0 mi SW 12.7 mph - N/A   Overcast
10:55 PM 50.0 °F - 23.0 °F 35% 30.03 in 10.0 mi SW 13.8 mph - N/A   Mostly Cloudy
11:15 PM 50.0 °F - 21.2 °F 32% 30.03 in 10.0 mi SW 15.0 mph - N/A   Mostly Cloudy
11:35 PM 48.2 °F - 21.2 °F 34% 30.04 in 10.0 mi WSW 15.0 mph - N/A   Mostly Cloudy
11:55 PM 46.4 °F 41.5 °F 21.2 °F 37% 30.04 in 10.0 mi WSW 10.4 mph - N/A   Scattered Clouds